Time,TemperatureF,DewpointF,PressureIn,WindDirection,WindDirectionDegrees,WindSpeedMPH,WindSpeedGustMPH,Humidity,HourlyPrecipIn,Conditions,Clouds,dailyrainin,SolarRadiationWatts/m^2,SoftwareType,DateUTC
2013-07-26 00:00:00,73.2,72.0,29.94,NNW,344,0.0,0.0,96,0.00,,OVC018,0.00,0.00,VWS V14.00,2013-07-26 04:00:00,
2013-07-26 01:00:00,72.8,71.9,29.93,NNW,344,0.0,0.0,97,0.00,,OVC018,0.00,0.00,VWS V14.00,2013-07-26 05:00:00,
2013-07-26 02:00:00,72.3,71.4,29.93,North,359,0.0,0.0,97,0.00,,OVC018,0.00,0.00,VWS V14.00,2013-07-26 06:00:00,
2013-07-26 03:00:00,71.7,70.8,29.93,NNE,18,0.0,0.0,97,0.00,,OVC018,0.00,0.00,VWS V14.00,2013-07-26 07:00:00,
2013-07-26 04:00:00,71.3,70.4,29.94,NNE,18,0.0,0.0,97,0.00,,OVC018,0.00,0.00,VWS V14.00,2013-07-26 08:00:00,
2013-07-26 05:00:00,70.7,69.8,29.95,NNE,18,0.0,0.0,97,0.00,,OVC018,0.00,0.00,VWS V14.00,2013-07-26 09:00:00,
2013-07-26 06:00:00,70.4,69.8,29.97,NNE,18,0.0,0.0,98,0.00,,OVC018,0.00,14.00,VWS V14.00,2013-07-26 10:00:00,
2013-07-26 07:00:00,71.4,70.8,29.99,NNE,15,0.0,0.0,98,0.00,,OVC018,0.00,53.00,VWS V14.00,2013-07-26 11:00:00,
2013-07-26 08:00:00,73.0,72.1,30.01,NNE,20,0.0,0.0,97,0.00,,OVC018,0.00,109.00,VWS V14.00,2013-07-26 12:00:00,
2013-07-26 09:00:00,77.3,74.1,30.02,NNE,25,0.0,0.0,90,0.00,,OVC018,0.00,403.00,VWS V14.00,2013-07-26 13:00:00,
2013-07-26 10:00:00,81.1,75.1,30.02,East,79,0.0,0.0,82,0.00,,OVC018,0.00,533.00,VWS V14.00,2013-07-26 14:00:00,
2013-07-26 11:00:00,82.1,75.7,30.01,SE,127,0.0,0.0,81,0.00,,OVC018,0.00,178.00,VWS V14.00,2013-07-26 15:00:00,
2013-07-26 12:00:00,82.7,75.9,30.00,ESE,118,0.0,0.0,80,0.00,,OVC018,0.00,149.00,VWS V14.00,2013-07-26 16:00:00,
2013-07-26 13:00:00,85.5,78.2,29.98,NE,49,0.0,0.0,79,0.00,,OVC018,0.00,997.00,VWS V14.00,2013-07-26 17:00:00,
2013-07-26 14:00:00,85.0,76.6,29.96,ENE,71,0.0,0.0,76,0.00,,OVC018,0.00,149.00,VWS V14.00,2013-07-26 18:00:00,
2013-07-26 15:00:00,82.4,76.0,29.93,East,80,0.0,0.0,81,0.00,,OVC018,0.00,74.00,VWS V14.00,2013-07-26 19:00:00,
2013-07-26 16:00:00,71.8,70.0,30.03,NNE,33,1.0,4.0,94,0.36,,OVC018,0.36,14.00,VWS V14.00,2013-07-26 20:00:00,
2013-07-26 17:00:00,72.2,71.0,29.96,ESE,117,0.0,0.0,96,0.85,,OVC018,0.85,257.00,VWS V14.00,2013-07-26 21:00:00,
2013-07-26 18:00:00,73.3,71.8,29.96,ESE,117,0.0,0.0,95,0.74,,OVC018,1.10,67.00,VWS V14.00,2013-07-26 22:00:00,
2013-07-26 19:00:00,73.4,72.2,29.97,North,352,0.0,5.0,96,0.37,,OVC018,1.22,5.00,VWS V14.00,2013-07-26 23:00:00,
2013-07-26 20:00:00,71.4,69.6,30.00,South,190,5.0,16.0,94,0.13,,OVC018,1.23,0.00,VWS V14.00,2013-07-27 00:00:00,
2013-07-26 21:00:00,69.9,68.7,29.99,SSE,155,0.0,0.0,96,0.08,,OVC018,1.30,0.00,VWS V14.00,2013-07-27 01:00:00,
2013-07-26 22:00:00,71.0,70.1,29.97,SE,138,0.0,0.0,97,0.07,,OVC018,1.30,0.00,VWS V14.00,2013-07-27 02:00:00,
2013-07-26 23:00:00,71.7,70.8,29.96,ESE,116,0.0,0.0,97,0.00,,OVC018,1.30,0.00,VWS V14.00,2013-07-27 03:00:00,